STARLINK-11698 [DTC]

Last updated on Thu Jul 03 2025 00:02:06 GMT+0000 (Coordinated Universal Time)

1 64325U 25124J 25183.58335648 -.00043528 00000+0 -24831-3 0 9999 2 64325 43.0009 97.0897 0001564 267.0610 168.6817 15.77876185 4620
UTC large
Height (km)
Speed (km/s)
/
Latitude / Longitude
Inclination (degrees)
Orbital Period (minutes)
Azimuth
Elevation
Range (km)
Doppler Factor

Next 0 passes for location: London (51.5072 / 0.1276)

Sorry there are no passes over London.